Temperatura - Umidità - Pioggia orarie dal 14-10-2020 al 22-10-2020

Intensità - Direzione vento orarie dal 14-10-2020 al 22-10-2020

Dati orari da stazione meteo dal 14-10-2020 al 22-10-2020

Nome Stazione Data Ora Temperatura [°C] Umidità [%] Pioggia [mm] Intensità vento[km/h] Direzione vento [°]
Savigliano 14-10-2020 02:00 7.2 73.6 0 0.4 218
Savigliano 14-10-2020 03:00 6.7 77.8 0 1.1 135
Savigliano 14-10-2020 04:00 6.5 79.1 0 0.4 151
Savigliano 14-10-2020 05:00 7 78.7 0 0 154
Savigliano 14-10-2020 06:00 7.3 79 0 0 162
Savigliano 14-10-2020 07:00 7.5 79 0 0 216
Savigliano 14-10-2020 08:00 7.1 79.1 0 0 238
Savigliano 14-10-2020 09:00 7.8 75.1 0 0 301
Savigliano 14-10-2020 10:00 9.5 72.7 0 0.4 302
Savigliano 14-10-2020 11:00 9.5 69.8 0 0.4 281
Savigliano 14-10-2020 12:00 10.1 66.6 0 1.1 276
Savigliano 14-10-2020 13:00 12.4 60.3 0 1.1 228
Savigliano 14-10-2020 14:00 14 59.8 0 1.4 179
Savigliano 14-10-2020 15:00 14.6 60 0 1.8 221
Savigliano 14-10-2020 16:00 14.6 60.1 0 1.4 172
Savigliano 14-10-2020 17:00 14.2 61.5 0 1.4 131
Savigliano 14-10-2020 18:00 12 66.6 0 0.7 41
Savigliano 14-10-2020 19:00 12 70.3 0 0 0
Savigliano 14-10-2020 20:00 11.7 73.5 0 0 0
Savigliano 14-10-2020 21:00 10.1 77.1 0 0 0
Savigliano 14-10-2020 22:00 9.9 79.7 0 0.4 240
Savigliano 14-10-2020 23:00 9.5 79.9 0 0.7 286
Savigliano 15-10-2020 00:00 9.6 80 0 1.1 253
Savigliano 15-10-2020 01:00 9.7 86.2 0 1.1 237
Savigliano 15-10-2020 02:00 9.6 85.7 0 0.7 270
Savigliano 15-10-2020 03:00 9.3 87.9 0 1.1 292
Savigliano 15-10-2020 04:00 8.7 90.8 0 0.4 273
Savigliano 15-10-2020 05:00 8.3 90.8 0.1 0.4 241
Savigliano 15-10-2020 06:00 7.9 90.1 0 4 216
Savigliano 15-10-2020 07:00 7.5 88.4 0 4.3 207
Savigliano 15-10-2020 08:00 7.4 85.9 0 2.9 189
Savigliano 15-10-2020 09:00 7.4 89.7 0 5 179
Savigliano 15-10-2020 10:00 9 85.6 0 4.3 178
Savigliano 15-10-2020 11:00 9.7 86.7 0 4 180
Savigliano 15-10-2020 12:00 9.4 85.3 0 1.8 198
Savigliano 15-10-2020 13:00 9.2 85.5 0 2.5 109
Savigliano 15-10-2020 14:00 9.4 87.5 0 3.2 94
Savigliano 15-10-2020 15:00 9.9 85.6 0 3.2 84
Savigliano 15-10-2020 16:00 9.9 85.2 0 2.2 111
Savigliano 15-10-2020 17:00 9.3 82.9 0 0.7 102
Savigliano 15-10-2020 18:00 9.7 85.6 0 0 82
Savigliano 15-10-2020 19:00 9.5 85.4 0 0.7 195
Savigliano 15-10-2020 20:00 8.6 88.7 0 0.4 239
Savigliano 15-10-2020 21:00 9 90.5 0 0.4 244
Savigliano 15-10-2020 22:00 9.2 91.5 0 0 243
Savigliano 15-10-2020 23:00 9.1 92.3 0 0.4 238
Savigliano 16-10-2020 00:00 9.1 92.6 0 0 237
Savigliano 16-10-2020 01:00 9.3 92.6 0 0 237
Savigliano 16-10-2020 02:00 9.3 90.2 0 0 237
Savigliano 16-10-2020 03:00 9.4 90.5 0 0 236
Savigliano 16-10-2020 04:00 9.2 90.6 0 0 238
Savigliano 16-10-2020 05:00 9.1 90.7 0 0.4 248
Savigliano 16-10-2020 06:00 8.4 90.4 0 0 270
Savigliano 16-10-2020 07:00 8.7 90.9 0 0.7 251
Savigliano 16-10-2020 08:00 8.1 91.8 0 0 236
Savigliano 16-10-2020 09:00 9.3 91.7 0 0 237
Savigliano 16-10-2020 10:00 11 85.1 0 0.4 234
Savigliano 16-10-2020 11:00 11.7 79.2 0 0.4 219
Savigliano 16-10-2020 12:00 12 74.3 0 1.4 44
Savigliano 16-10-2020 13:00 12 74 0 1.1 103
Savigliano 16-10-2020 14:00 12.6 66.4 0 1.8 105
Savigliano 16-10-2020 15:00 13.1 67.2 0 2.2 83
Savigliano 16-10-2020 16:00 13 65.4 0 2.2 88
Savigliano 16-10-2020 17:00 12.2 65.7 0 1.1 98
Savigliano 16-10-2020 18:00 12 69.4 0 0.4 119
Savigliano 16-10-2020 19:00 11.9 74.1 0 0 104
Savigliano 16-10-2020 20:00 9.6 80.7 0 0 99
Savigliano 16-10-2020 21:00 9.7 84.2 0 0.4 122
Savigliano 16-10-2020 22:00 9.4 85.3 0 2.5 215
Savigliano 16-10-2020 23:00 7.3 85.2 0 0.4 195
Savigliano 17-10-2020 00:00 7.1 89.2 0 1.1 157
Savigliano 17-10-2020 01:00 5.4 90.8 0 1.1 164
Savigliano 17-10-2020 02:00 4.5 90.9 0 0.7 155
Savigliano 17-10-2020 03:00 4.4 90.9 0 0.4 152
Savigliano 17-10-2020 04:00 4.7 90.5 0 0 155
Savigliano 17-10-2020 05:00 4.5 90.4 0 1.4 175
Savigliano 17-10-2020 06:00 4.7 89.5 0 1.4 181
Savigliano 17-10-2020 07:00 3.8 90 0 0 163
Savigliano 17-10-2020 08:00 3.4 90.5 0 1.1 170
Savigliano 17-10-2020 09:00 4.7 89.7 0 0 173
Savigliano 17-10-2020 10:00 8 83.4 0 0.4 178
Savigliano 17-10-2020 11:00 11.1 75.1 0 0 262
Savigliano 17-10-2020 12:00 12.7 72.7 0 0.4 214
Savigliano 17-10-2020 13:00 14.7 67.2 0 0.4 257
Savigliano 17-10-2020 14:00 14.7 61.3 0 0.4 296
Savigliano 17-10-2020 15:00 16 60.6 0 1.4 218
Savigliano 17-10-2020 16:00 17.3 54.3 0 0.4 282
Savigliano 17-10-2020 17:00 17.2 52.9 0 0.7 257
Savigliano 17-10-2020 18:00 16.5 58 0 0.7 278
Savigliano 17-10-2020 19:00 13.1 67.9 0 0.4 320
Savigliano 17-10-2020 20:00 12.4 74 0 0 306
Savigliano 17-10-2020 21:00 11.9 73.8 0 0.7 292
Savigliano 17-10-2020 22:00 11.6 75 0 0.7 309
Savigliano 17-10-2020 23:00 10 80.1 0 0.4 298
Savigliano 18-10-2020 00:00 9.8 79.9 0 0.7 277
Savigliano 18-10-2020 01:00 9.5 79.2 0 0.4 297
Savigliano 18-10-2020 02:00 9.6 80.4 0 0 308
Savigliano 18-10-2020 03:00 9.6 82.7 0 0 306
Savigliano 18-10-2020 04:00 7.4 85.4 0 0 307
Savigliano 18-10-2020 05:00 8.1 89.6 0 0 307
Savigliano 18-10-2020 06:00 9.2 86 0 0 266
Savigliano 18-10-2020 07:00 9.4 85.1 0 0 230
Savigliano 18-10-2020 08:00 9.6 84.1 0 0 262
Savigliano 18-10-2020 09:00 9.7 84.8 0 0 302
Savigliano 18-10-2020 10:00 9.7 82.7 0 0 300
Savigliano 18-10-2020 11:00 10.7 79.8 0 0 284
Savigliano 18-10-2020 12:00 12.1 75.9 0 0 288
Savigliano 18-10-2020 13:00 12.1 77.2 0 0 73
Savigliano 18-10-2020 14:00 13.2 74.1 0 0.4 66
Savigliano 18-10-2020 15:00 14.2 73.9 0 1.4 85
Savigliano 18-10-2020 16:00 15.2 70.1 0 0.4 174
Savigliano 18-10-2020 17:00 14.7 70 0 0 289
Savigliano 18-10-2020 18:00 13.3 71.6 0 0 284
Savigliano 18-10-2020 19:00 12.2 75.2 0 0 282
Savigliano 18-10-2020 20:00 12.3 80.4 0 0 283
Savigliano 18-10-2020 21:00 11.8 85.7 0 0 284
Savigliano 18-10-2020 22:00 9.8 85.7 0 0 284
Savigliano 18-10-2020 23:00 9.4 86.3 0 0 284
Savigliano 19-10-2020 00:00 9.7 88.1 0 0 285
Savigliano 19-10-2020 01:00 9.8 91.1 0 0 284
Savigliano 19-10-2020 02:00 9.3 91.1 0 0 283
Savigliano 19-10-2020 03:00 9.8 89.5 0 0 282
Savigliano 19-10-2020 04:00 9.5 85.9 0 0 276
Savigliano 19-10-2020 05:00 9.6 86.2 0 0 279
Savigliano 19-10-2020 06:00 9.4 88.6 0 0 278
Savigliano 19-10-2020 07:00 9.2 86.8 0 0 271
Savigliano 19-10-2020 08:00 9.2 89.5 0 0 272
Savigliano 19-10-2020 09:00 9.3 90.4 0 0 114
Savigliano 19-10-2020 10:00 9.5 86.5 0 0 279
Savigliano 19-10-2020 11:00 10.4 85.7 0 0 294
Savigliano 19-10-2020 12:00 12 86.6 0 0 176
Savigliano 19-10-2020 13:00 13.8 80.1 0 0 265
Savigliano 19-10-2020 14:00 14.7 74.9 0 0 198
Savigliano 19-10-2020 15:00 14.9 69.7 0 0 270
Savigliano 19-10-2020 16:00 14.7 72.2 0 0 270
Savigliano 19-10-2020 17:00 14.4 73.6 0 1.1 285
Savigliano 19-10-2020 18:00 12.5 77.9 0 1.1 288
Savigliano 19-10-2020 19:00 12 80.2 0 0.4 294
Savigliano 19-10-2020 20:00 11.8 79.5 0 0 298
Savigliano 19-10-2020 21:00 12.3 82.6 0 0 316
Savigliano 19-10-2020 22:00 12.5 86 0 0 297
Savigliano 19-10-2020 23:00 12.3 86.3 0 0 288
Savigliano 20-10-2020 00:00 12.1 86.8 0 0 275
Savigliano 20-10-2020 01:00 11.7 86.3 0 0.4 277
Savigliano 20-10-2020 02:00 11 85.2 0 0.4 283
Savigliano 20-10-2020 03:00 10.4 85.4 0 0.4 298
Savigliano 20-10-2020 04:00 9.8 86.5 0 0.4 296
Savigliano 20-10-2020 05:00 9.8 86.8 0 0.4 286
Savigliano 20-10-2020 06:00 9.6 87 0 0 266
Savigliano 20-10-2020 07:00 9.5 87 0 0 266
Savigliano 20-10-2020 08:00 9.5 87.7 0 0 266
Savigliano 20-10-2020 09:00 9.7 90.9 0 0 264
Savigliano 20-10-2020 10:00 10.5 90 0 0 263
Savigliano 20-10-2020 11:00 12.5 86.4 0 0.4 269
Savigliano 20-10-2020 12:00 12.2 82.7 0 1.1 293
Savigliano 20-10-2020 13:00 13.1 80.6 0 0.7 219
Savigliano 20-10-2020 14:00 14.6 76.9 0 1.1 237
Savigliano 20-10-2020 15:00 14.8 75.1 0 1.1 139
Savigliano 20-10-2020 16:00 14.8 74.9 0 1.1 237
Savigliano 20-10-2020 17:00 14.4 77.7 0 1.4 264
Savigliano 20-10-2020 18:00 13 81 0 0.7 292
Savigliano 20-10-2020 19:00 11.8 79.9 0 2.2 298
Savigliano 20-10-2020 20:00 12.4 81.7 0 0.4 308
Savigliano 20-10-2020 21:00 12.2 86.9 0 0.7 313
Savigliano 20-10-2020 22:00 11.9 85.7 0 0.4 300
Savigliano 20-10-2020 23:00 11.7 86.8 0 0.4 309
Savigliano 21-10-2020 00:00 11.6 87.5 0 0 301
Savigliano 21-10-2020 01:00 11.1 88.1 0 0.4 302
Savigliano 21-10-2020 02:00 10.9 90.9 0 0 300
Savigliano 21-10-2020 03:00 10.7 90.8 0 0 300
Savigliano 15-10-2020 02:50 0 0 0.1 0 0
Savigliano 15-10-2020 02:55 0 0 0.1 0 0
Savigliano 15-10-2020 04:30 0 0 0.1 0 0
Savigliano 15-10-2020 04:40 0 0 0.1 0 0
Savigliano 15-10-2020 05:05 0 0 0.1 0 0
Savigliano 15-10-2020 05:10 0 0 0.1 0 0
Savigliano 15-10-2020 05:15 0 0 0.1 0 0
Savigliano 15-10-2020 05:35 0 0 0.1 0 0
Savigliano 15-10-2020 06:10 0 0 0.1 0 0
Savigliano 15-10-2020 06:25 0 0 0.1 0 0
Savigliano 15-10-2020 13:45 0 0 0.1 0 0
Savigliano 15-10-2020 14:05 0 0 0.1 0 0
Savigliano 15-10-2020 14:35 0 0 0.1 0 0
Savigliano 15-10-2020 14:55 0 0 0.1 0 0

Riassuntivo giornaliero del 21-10-2020